Weather History for CYRB - April, 2013

Change the Weather History Date:

Saturday, April 6, 2013

  Actual Average Record
Temperature  
Mean Temperature 12 °F -  
Max Temperature 22 °F -5 °F 22 °F (2013)
Min Temperature 3 °F -16 °F -32 °F (2011)
Degree Days  
Heating Degree Days 52    
Moisture  
Dew Point -5 °F    
Average Humidity 42    
Maximum Humidity 56    
Minimum Humidity 25    
Precipitation  
Precipitation 0.00 in - - ()
Sea Level Pressure  
Sea Level Pressure 30.28 in    
Wind  
Wind Speed 12 mph ()    
Max Wind Speed 29 mph    
Max Gust Speed 26 mph    
Visibility 15.0 miles    
Events Snow    
Averages and records for this station are not official NWS values.
T = Trace of Precipitation, MM = Missing Value Source: Averaged Metar Reports

Daily Weather History Graph

Daily Weather History Graph

Search for Another Location

Airport or City:

Trip Planner

Search our weather history database for the weather conditions in past years. The results will help you decide how hot, cold, wet, or windy it might be!

Date:

Astronomy

Apr. 06, 2013 Rise Set
Actual Time 5:27 AM CDT 9:20 PM CDT
Civil Twilight 3:41 AM CDT 11:10 PM CDT
Nautical Twilight Sun does not rise Sun does not rise
Astronomical Twilight Sun does not rise Sun does not rise
Moon 6:06 AM CDT (4/6) 3:12 PM CDT (4/6)
Length of Visible Light 19h 29m
Length of Day
15h 52m
Waning Crescent, 15% of the Moon is Illuminated
Apr 6
Waning Crescent
Apr 10
New
Apr 18
First Quarter
Apr 25
Full
May 2
Last Quarter

Hourly Weather History & Observations

Time (CDT) Temp. Windchill Dew Point Humidity Pressure Visibility Wind Dir Wind Speed Gust Speed Precip Events Conditions
12:00 AM 12.2 °F -2.5 °F -4.0 °F 48% 30.36 in 15.0 mi East 12.7 mph - N/A   Partly Cloudy
1:00 AM 6 °F - -7 °F 40% 30.36 in 15 mi East 13.8 mph - -   Scattered Clouds
1:00 AM 6.8 °F -10.0 °F -5.8 °F 56% 30.36 in 15.0 mi East 13.8 mph - N/A   Partly Cloudy
2:00 AM 6.8 °F -8.6 °F -5.8 °F 56% 30.35 in 15.0 mi East 11.5 mph 17.3 mph N/A   Partly Cloudy
3:00 AM 8.6 °F -5.5 °F -5.8 °F 52% 30.35 in 15.0 mi East 10.4 mph - N/A   Clear
4:00 AM 10.4 °F -5.4 °F -5.8 °F 48% 30.34 in 15.0 mi East 13.8 mph - N/A   Clear
5:00 AM 5.0 °F -14.7 °F -9.4 °F 52% 30.33 in 15.0 mi ENE 18.4 mph - N/A   Clear
6:00 AM 8.6 °F -10.5 °F -7.6 °F 48% 30.32 in 15.0 mi NE 19.6 mph - N/A   Partly Cloudy
7:00 AM 14 °F - -6 °F 25% 30.30 in 15 mi ENE 20.7 mph - - Snow Low Drifting Snow
7:00 AM 14.0 °F -3.9 °F -5.8 °F 41% 30.30 in 15.0 mi ENE 20.7 mph 26.5 mph N/A Snow Low Drifting Snow
8:00 AM 14.0 °F -6.5 °F -5.8 °F 41% 30.29 in 15.0 mi ENE 28.8 mph - N/A Snow Low Drifting Snow
9:00 AM 17.6 °F 2.7 °F -4.0 °F 38% 30.29 in 15.0 mi NE 16.1 mph - N/A   Partly Cloudy
10:00 AM 17.6 °F - -4.0 °F 38% 30.28 in 15.0 mi Calm Calm - N/A   Partly Cloudy
11:00 AM 19.4 °F - -5.8 °F 33% 30.27 in 15.0 mi Calm Calm - N/A   Partly Cloudy
12:00 PM 15.8 °F -2.7 °F -4.0 °F 41% 30.25 in 15.0 mi ENE 24.2 mph - N/A   Partly Cloudy
1:00 PM 13 °F - -5 °F 29% 30.25 in 15 mi North 28.8 mph - -   Scattered Clouds
1:00 PM 14.0 °F -6.5 °F -4.0 °F 45% 30.25 in 15.0 mi NE 28.8 mph - N/A   Partly Cloudy
2:00 PM 17.6 °F - -4.0 °F 38% 30.26 in 15.0 mi Calm Calm - N/A   Partly Cloudy
3:00 PM 12.2 °F 2.9 °F -2.2 °F 53% 30.26 in 15.0 mi West 5.8 mph - N/A   Partly Cloudy
4:00 PM 15.8 °F - -2.2 °F 45% 30.26 in 15.0 mi Calm Calm - N/A   Partly Cloudy
5:00 PM 15.8 °F 7.2 °F -0.4 °F 49% 30.26 in 15.0 mi NW 5.8 mph - N/A   Partly Cloudy
6:00 PM 15.8 °F 5.1 °F -2.2 °F 45% 30.25 in 15.0 mi NNW 8.1 mph - N/A   Partly Cloudy
7:00 PM 17 °F - -3 °F 26% 30.25 in 15 mi North 8.1 mph - -   Clear
7:00 PM 17.6 °F 7.3 °F -2.2 °F 42% 30.25 in 15.0 mi North 8.1 mph - N/A   Partly Cloudy
8:00 PM 17.6 °F 12.3 °F -4.0 °F 38% 30.25 in 15.0 mi North 3.5 mph - N/A   Partly Cloudy
9:00 PM 19.4 °F 12.8 °F -4.0 °F 36% 30.23 in 15.0 mi North 4.6 mph - N/A   Partly Cloudy
10:00 PM 21.2 °F 7.3 °F -4.0 °F 33% 30.22 in 15.0 mi NE 16.1 mph - N/A   Partly Cloudy
11:00 PM 15.8 °F - -5.8 °F 38% 30.21 in 15.0 mi South 2.3 mph - N/A   Partly Cloudy